Watford City, ND

6:14 PM CST on January 19, 2017 (GMT -0600)
Watford City

Weather History for KS25 - October, 2013

Change the Weather History Date:

Tuesday, October 1, 2013

  Actual Average (KISN) Record (KISN)
Temperature  
Mean Temperature 50 °F -  
Max Temperature 64 °F 65 °F 93 °F (1897)
Min Temperature 37 °F 37 °F 19 °F (2002)
Degree Days  
Heating Degree Days 14    
Moisture  
Dew Point 31 °F    
Average Humidity 50    
Maximum Humidity 81    
Minimum Humidity 24    
Precipitation  
Precipitation 0.00 in - - ()
Sea Level Pressure  
Sea Level Pressure 29.79 in    
Wind  
Wind Speed 13 mph (WSW)    
Max Wind Speed 24 mph    
Max Gust Speed 32 mph    
Visibility 10 miles    
Events      
Averages and records for this station are not official NWS values.
T = Trace of Precipitation, MM = Missing Value Source: NWS Daily Summary

Daily Weather History Graph

Daily Weather History Graph

Search for Another Location

Airport or City:

Trip Planner

Search our weather history database for the weather conditions in past years. The results will help you decide how hot, cold, wet, or windy it might be!

Date:

Astronomy

Oct. 01, 2013 Rise Set
Actual Time 7:52 AM CDT 7:31 PM CDT
Civil Twilight 7:21 AM CDT 8:02 PM CDT
Nautical Twilight 6:45 AM CDT 8:38 PM CDT
Astronomical Twilight 6:09 AM CDT 9:14 PM CDT
Moon 4:16 AM CDT (10/1) 5:46 PM CDT (10/1)
Length of Visible Light 12h 40m
Length of Day
11h 39m
Waning Crescent, 12% of the Moon is Illuminated
Oct 1
Waning Crescent
Oct 4
New
Oct 11
First Quarter
Oct 18
Full
Oct 26
Last Quarter

Hourly Weather History & Observations

Time (CDT) Temp. Windchill Dew Point Humidity Pressure Visibility Wind Dir Wind Speed Gust Speed Precip Events Conditions
12:15 AM 44.6 °F 39.2 °F 37.4 °F 76% 29.63 in 10.0 mi SW 10.4 mph - N/A   Clear
12:35 AM 46.4 °F 40.7 °F 37.4 °F 71% 29.63 in 10.0 mi SW 12.7 mph 17.3 mph N/A   Clear
12:55 AM 46.4 °F 41.1 °F 37.4 °F 71% 29.64 in 10.0 mi SW 11.5 mph - N/A   Clear
1:15 AM 46.4 °F 40.7 °F 35.6 °F 66% 29.64 in 10.0 mi WSW 12.7 mph - N/A   Clear
1:35 AM 48.2 °F - 35.6 °F 62% 29.65 in 10.0 mi WSW 13.8 mph - N/A   Clear
1:55 AM 50.0 °F - 32.0 °F 50% 29.66 in 10.0 mi West 16.1 mph 25.3 mph N/A   Clear
2:15 AM 50.0 °F - 32.0 °F 50% 29.67 in 10.0 mi WSW 10.4 mph - N/A   Clear
2:35 AM 48.2 °F - 32.0 °F 54% 29.68 in 10.0 mi WSW 11.5 mph - N/A   Clear
2:55 AM 48.2 °F - 32.0 °F 54% 29.68 in 10.0 mi WSW 10.4 mph 17.3 mph N/A   Clear
3:15 AM 46.4 °F 41.1 °F 32.0 °F 57% 29.68 in 10.0 mi WSW 11.5 mph 16.1 mph N/A   Clear
3:35 AM 46.4 °F 40.7 °F 32.0 °F 57% 29.68 in 10.0 mi WSW 12.7 mph - N/A   Clear
3:55 AM 46.4 °F 40.7 °F 32.0 °F 57% 29.69 in 10.0 mi WSW 12.7 mph - N/A   Clear
4:15 AM 44.6 °F 38.8 °F 32.0 °F 61% 29.69 in 10.0 mi SW 11.5 mph - N/A   Clear
4:35 AM 42.8 °F 36.2 °F 32.0 °F 66% 29.70 in 10.0 mi SW 12.7 mph - N/A   Clear
4:55 AM 42.8 °F 36.6 °F 32.0 °F 66% 29.71 in 10.0 mi SW 11.5 mph 17.3 mph N/A   Clear
5:15 AM 42.8 °F 36.6 °F 32.0 °F 66% 29.71 in 10.0 mi SW 11.5 mph - N/A   Clear
5:35 AM 42.8 °F 36.2 °F 32.0 °F 66% 29.72 in 10.0 mi SW 12.7 mph - N/A   Clear
5:55 AM 41.0 °F 34.3 °F 32.0 °F 70% 29.73 in 10.0 mi SW 11.5 mph - N/A   Clear
6:15 AM 42.8 °F 35.8 °F 32.0 °F 66% 29.73 in 10.0 mi SW 13.8 mph 18.4 mph N/A   Clear
6:35 AM 42.8 °F 36.6 °F 32.0 °F 66% 29.74 in 10.0 mi SW 11.5 mph - N/A   Clear
6:55 AM 41.0 °F 34.3 °F 32.0 °F 70% 29.75 in 10.0 mi SW 11.5 mph - N/A   Clear
7:15 AM 41.0 °F 33.9 °F 32.0 °F 70% 29.76 in 10.0 mi SW 12.7 mph 17.3 mph N/A   Clear
7:35 AM 41.0 °F 34.3 °F 32.0 °F 70% 29.77 in 10.0 mi SW 11.5 mph - N/A   Clear
7:55 AM 41.0 °F 33.9 °F 32.0 °F 70% 29.77 in 10.0 mi SW 12.7 mph - N/A   Clear
8:15 AM 41.0 °F 33.9 °F 32.0 °F 70% 29.78 in 10.0 mi SW 12.7 mph - N/A   Clear
8:35 AM 41.0 °F 33.9 °F 32.0 °F 70% 29.78 in 10.0 mi SW 12.7 mph - N/A   Clear
8:55 AM 44.6 °F 39.2 °F 32.0 °F 61% 29.79 in 10.0 mi SW 10.4 mph 16.1 mph N/A   Clear
9:15 AM 46.4 °F 41.1 °F 32.0 °F 57% 29.79 in 10.0 mi SW 11.5 mph 17.3 mph N/A   Clear
9:35 AM 48.2 °F - 32.0 °F 54% 29.80 in 10.0 mi WSW 11.5 mph 17.3 mph N/A   Clear
9:55 AM 51.8 °F - 32.0 °F 47% 29.80 in 10.0 mi West 17.3 mph 21.9 mph N/A   Clear
10:15 AM 53.6 °F - 32.0 °F 44% 29.80 in 10.0 mi West 19.6 mph 28.8 mph N/A   Clear
10:35 AM 53.6 °F - 32.0 °F 44% 29.81 in 10.0 mi West 19.6 mph 27.6 mph N/A   Clear
10:55 AM 55.4 °F - 32.0 °F 41% 29.82 in 10.0 mi West 20.7 mph 29.9 mph N/A   Clear
11:15 AM 55.4 °F - 32.0 °F 41% 29.82 in 10.0 mi West 23.0 mph 31.1 mph N/A   Clear
11:35 AM 57.2 °F - 32.0 °F 38% 29.82 in 10.0 mi West 21.9 mph 31.1 mph N/A   Clear
11:55 AM 57.2 °F - 32.0 °F 38% 29.83 in 10.0 mi West 23.0 mph 32.2 mph N/A   Clear
12:15 PM 59.0 °F - 32.0 °F 36% 29.82 in 10.0 mi West 23.0 mph 29.9 mph N/A   Clear
12:35 PM 59.0 °F - 32.0 °F 36% 29.82 in 10.0 mi WNW 20.7 mph 27.6 mph N/A   Clear
12:55 PM 59.0 °F - 32.0 °F 36% 29.83 in 10.0 mi West 21.9 mph 28.8 mph N/A   Clear
1:15 PM 62.6 °F - 32.0 °F 32% 29.83 in 10.0 mi West 17.3 mph 29.9 mph N/A   Clear
1:35 PM 62.6 °F - 32.0 °F 32% 29.83 in 10.0 mi West 23.0 mph 28.8 mph N/A   Clear
1:55 PM 62.6 °F - 32.0 °F 32% 29.82 in 10.0 mi West 24.2 mph 28.8 mph N/A   Clear
2:15 PM 62.6 °F - 30.2 °F 30% 29.82 in 10.0 mi West 18.4 mph 27.6 mph N/A   Clear
2:35 PM 64.4 °F - 30.2 °F 28% 29.82 in 10.0 mi West 18.4 mph 24.2 mph N/A   Clear
2:55 PM 62.6 °F - 30.2 °F 30% 29.82 in 10.0 mi West 16.1 mph 28.8 mph N/A   Clear
3:15 PM 64.4 °F - 28.4 °F 26% 29.82 in 10.0 mi WSW 19.6 mph 28.8 mph N/A   Clear
3:35 PM 64.4 °F - 28.4 °F 26% 29.82 in 10.0 mi WSW 23.0 mph 32.2 mph N/A   Clear
3:55 PM 64.4 °F - 28.4 °F 26% 29.83 in 10.0 mi West 21.9 mph 27.6 mph N/A   Clear
4:15 PM 64.4 °F - 28.4 °F 26% 29.83 in 10.0 mi West 12.7 mph 25.3 mph N/A   Clear
4:35 PM 64.4 °F - 26.6 °F 24% 29.82 in 10.0 mi West 18.4 mph 27.6 mph N/A   Clear
4:55 PM 64.4 °F - 26.6 °F 24% 29.82 in 10.0 mi West 18.4 mph 28.8 mph N/A   Clear
5:15 PM 64.4 °F - 28.4 °F 26% 29.83 in 10.0 mi West 18.4 mph 24.2 mph N/A   Clear
5:35 PM 64.4 °F - 28.4 °F 26% 29.83 in 10.0 mi West 15.0 mph 23.0 mph N/A   Clear
5:55 PM 64.4 °F - 26.6 °F 24% 29.83 in 10.0 mi WSW 15.0 mph 21.9 mph N/A   Clear
6:15 PM 64.4 °F - 26.6 °F 24% 29.84 in 10.0 mi West 16.1 mph 21.9 mph N/A   Clear
6:35 PM 62.6 °F - 24.8 °F 24% 29.84 in 10.0 mi West 12.7 mph 20.7 mph N/A   Clear
6:55 PM 60.8 °F - 26.6 °F 27% 29.84 in 10.0 mi West 9.2 mph - N/A   Clear
7:15 PM 59.0 °F - 26.6 °F 29% 29.85 in 10.0 mi West 8.1 mph - N/A   Clear
7:35 PM 55.4 °F - 28.4 °F 36% 29.85 in 10.0 mi West 3.5 mph - N/A   Clear
7:55 PM 53.6 °F - 28.4 °F 38% 29.85 in 10.0 mi West 3.5 mph - N/A   Clear
8:15 PM 50.0 °F - 30.2 °F 47% 29.86 in 10.0 mi WSW 3.5 mph - N/A   Clear
8:35 PM 46.4 °F 45.2 °F 32.0 °F 57% 29.86 in 10.0 mi WSW 3.5 mph - N/A   Unknown
8:55 PM 46.4 °F - 30.2 °F 53% 29.86 in 10.0 mi Calm Calm - N/A   Clear
9:15 PM 46.4 °F 44.3 °F 30.2 °F 53% 29.86 in 10.0 mi South 4.6 mph - N/A   Clear
9:35 PM 44.6 °F - 32.0 °F 61% 29.86 in 10.0 mi Calm Calm - N/A   Clear
9:55 PM 42.8 °F 40.1 °F 32.0 °F 66% 29.86 in 10.0 mi SSW 4.6 mph - N/A   Clear
10:15 PM 39.2 °F 35.9 °F 32.0 °F 75% 29.86 in 10.0 mi SW 4.6 mph - N/A   Clear
10:35 PM 39.2 °F 35.9 °F 32.0 °F 75% 29.87 in 10.0 mi SW 4.6 mph - N/A   Clear
10:55 PM 39.2 °F 35.0 °F 32.0 °F 75% 29.87 in 10.0 mi WSW 5.8 mph - N/A   Clear
11:15 PM 37.4 °F 32.8 °F 32.0 °F 81% 29.88 in 10.0 mi WSW 5.8 mph - N/A   Clear
11:35 PM 37.4 °F - 32.0 °F 81% 29.88 in 10.0 mi Calm Calm - N/A   Clear
11:55 PM 39.2 °F - 32.0 °F 75% 29.88 in 10.0 mi Calm Calm - N/A   Clear